This demonstration page uses our WeatherBlox Daily Observations layout. Learn more.

Left ArrowRight Arrow

30.21309, -93.2044

Hourly Observations for May 20, 2022

Temp ( °F °C ) Dew Point ( °F °C ) Humidity (%) Winds ( mph kmh ) Pressure ( in mb ) Visibility ( mi km ) Precip ( " mm )
12:15 am 00:15 Partly Cloudy 73 22.8 69 20.7 88 88 S 7 11 29.78 1008 10 16 0.00 0.00
12:35 am 00:35 Partly Cloudy 71 21.8 68 20.1 90 90 S 6 9 29.78 1008 10 16 0.00 0.00
12:55 am 00:55 Partly Cloudy 71 21.9 69 20.4 91 91 SSE 6 9 29.77 1008 10 16 0.00 0.00
1:15 am 01:15 Partly Cloudy 73 22.9 70 20.9 89 89 S 7 11 29.77 1008 10 16 0.00 0.00
1:35 am 01:35 Partly Cloudy 73 23 69 20.8 87 87 S 8 13 29.77 1008 10 16 0.00 0.00
1:55 am 01:55 Partly Cloudy 74 23.3 69 20.8 86 86 S 8 13 29.76 1008 10 16 0.00 0.00
2:15 am 02:15 Partly Cloudy 73 22.9 69 20.6 87 87 S 8 13 29.76 1008 10 16 0.00 0.00
2:35 am 02:35 Partly Cloudy 71 21.4 68 19.8 91 91 SSE 7 11 29.75 1007 10 16 0.00 0.00
2:55 am 02:55 Mostly Cloudy 73 22.9 69 20.7 87 87 S 7 11 29.75 1007 10 16 0.00 0.00
3:15 am 03:15 Partly Cloudy 74 23.4 69 20.8 85 85 S 7 11 29.75 1007 10 16 0.00 0.00
3:35 am 03:35 Clear 72 22.3 68 20.1 87 87 S 6 9 29.75 1007 10 16 0.00 0.00
3:55 am 03:55 Partly Cloudy 71 21.5 68 19.9 91 91 SSE 7 11 29.74 1007 10 16 0.00 0.00
4:15 am 04:15 Partly Cloudy 70 21.2 67 19.7 91 91 S 6 9 29.75 1007 10 16 0.00 0.00
4:35 am 04:35 Partly Cloudy 71 21.4 68 20 92 92 SSE 5 7 29.75 1007 10 16 0.00 0.00
4:55 am 04:55 Partly Cloudy 70 21.2 67 19.7 91 91 SSE 7 11 29.74 1007 10 16 0.00 0.00
5:15 am 05:15 Partly Cloudy 71 21.4 67 19.7 90 90 SSE 7 11 29.74 1007 10 16 0.00 0.00
5:35 am 05:35 Mostly Cloudy 72 22.1 68 20.1 88 88 SSE 6 9 29.75 1007 10 16 0.00 0.00
6:00 am 06:00 Partly Cloudy 70 21 66 19 88 88 SSE 7 11 29.75 1007 10 16 0.00 0.00
6:45 am 06:45 Mostly Sunny 72 22 68 20 88 88 SSE 7 11 29.76 1008 7 11 0.00 0.00
7:55 am 07:55 Mostly Sunny 79 26 72 22 79 79 SSE 14 22 29.77 1008 7 11 0.00 0.00
8:33 am 08:33 Mostly Cloudy 81 27 73 23 79 79 S 14 22 29.78 1008 7 11 0.00 0.00
8:55 am 08:55 Mostly Cloudy 81 27 73 23 79 79 S 14 22 29.78 1008 7 11 0.00 0.00
9:45 am 09:45 Mostly Cloudy 84 29 72 22 66 66 S 16 26 29.80 1009 10 16 0.00 0.00
10:47 am 10:47 Mostly Cloudy 88 31 72 22 59 59 S 20 31 29.80 1009 10 16 0.00 0.00
11:45 am 11:45 Partly Cloudy 90 32 70 21 52 52 S 22 35 29.81 1009 10 16 0.00 0.00
12:51 pm 12:51 Mostly Cloudy 90 32 72 22 55 55 S 20 31 29.80 1009 10 16 0.00 0.00
1:51 pm 13:51 Mostly Cloudy 90 32 73 23 59 59 SSE 22 35 29.80 1009 10 16 0.00 0.00
2:45 pm 14:45 Partly Cloudy 91 33 72 22 52 52 S 18 30 29.79 1009 10 16 0.00 0.00
3:45 pm 15:45 Mostly Sunny 90 32 70 21 52 52 S 22 35 29.78 1008 10 16 0.00 0.00
4:45 pm 16:45 Partly Cloudy 91 33 70 21 49 49 S 18 30 29.78 1008 10 16 0.00 0.00
5:50 pm 17:50 Mostly Sunny 90 32 72 22 55 55 S 20 31 29.78 1008 10 16 0.00 0.00
6:45 pm 18:45 Mostly Sunny 84 29 73 23 70 70 SSE 21 33 29.78 1008 10 16 0.00 0.00
7:50 pm 19:50 Mostly Cloudy 82 28 73 23 74 74 SSE 17 28 29.81 1009 10 16 0.00 0.00
8:50 pm 20:50 Mostly Cloudy 81 27 75 24 84 84 SSE 14 22 29.82 1010 10 16 0.00 0.00
9:50 pm 21:50 Mostly Cloudy 81 27 75 24 84 84 SSE 9 15 29.85 1011 10 16 0.00 0.00
10:15 pm 22:15 Cloudy 80 26.9 75 23.8 83 83 SSE 10 17 29.86 1011 10 16 0.00 0.00
10:35 pm 22:35 Cloudy 80 26.5 75 23.8 85 85 SSE 12 19 29.86 1011 10 16 0.00 0.00
10:55 pm 22:55 Cloudy 80 26.6 75 23.9 85 85 SSE 13 20 29.86 1011 10 16 0.00 0.00
11:15 pm 23:15 Mostly Cloudy 79 26.2 75 23.8 87 87 SSE 10 17 29.86 1011 10 16 0.00 0.00
11:35 pm 23:35 Mostly Cloudy 79 26.2 75 23.9 87 87 SSE 13 20 29.86 1011 10 16 0.00 0.00
11:55 pm 23:55 Cloudy 80 26.6 75 23.9 85 85 SSE 14 22 29.86 1011 10 16 0.00 0.00

Powered by AerisWeather